Location: Newark
(51.2625°N, 13.3939°E)
Time: 13:33:58
(UTC+00:00)

Explorer 7 - Pass Details

Date: 13 November 2019
Orbit: 485 x 680 km, 50.3° (Epoch: 10 December)

Event Time Altitude Azimuth Distance (km) Brightness Sun altitude
Rises 06:58:06 0° 282° (WNW) 2,668 9.7 4.3°
Reaches altitude 10° 07:00:36 10° 270° (W) 1,745 8.9 4.6°
Maximum altitude 07:03:56 27° 212° (SSW) 1,004 8.3 5.0°
Drops below altitude 10° 07:07:08 10° 154° (SSE) 1,680 10.6 5.4°
Sets 07:09:30 0° 142° (SE) 2,546 12.2 5.7°
